EW0159 Weather Reports


Display with metric or nautical units.
time (UTC)temp
F
wind
direction
speed
MPH
gust
MPH
rain 1hr
in
rain 24hr
in
rain mn
in
humidity
%
barometer
mb
20260510201523 67 279 1.0 5.0 0.00 0.00 0.00 55 1019.5
20260510200020 65 281 0.0 7.0 0.00 0.00 0.00 56 1019.5
20260510194526 65 82 1.0 8.0 0.00 0.00 0.00 59 1019.5
20260510193017 65 295 1.0 6.0 0.00 0.00 0.00 63 1019.5
20260510191515 64 246 1.0 6.0 0.00 0.00 0.00 63 1019.5
20260510190025 63 263 1.0 5.0 0.00 0.00 0.00 67 1019.7
20260510184511 62 303 2.0 4.0 0.00 0.00 0.00 66 1019.4
20260510183010 62 355 0.0 4.0 0.00 0.00 0.00 66 1019.3
20260510181509 63 319 1.0 6.0 0.00 0.00 0.00 65 1019.1
20260510180009 64 213 1.0 6.0 0.00 0.00 0.00 65 1018.9
20260510174508 65 96 0.0 7.0 0.00 0.00 0.00 64 1019.0
20260510173004 64 276 1.0 6.0 0.00 0.00 0.00 68 1018.9
20260510171502 63 157 2.0 6.0 0.00 0.00 0.00 69 1018.9
20260510170100 62 185 4.0 5.0 0.00 0.00 0.00 69 1018.7
20260510164610 62 240 5.0 8.0 0.00 0.00 0.00 72 1018.5
20260510163137 61 96 0.0 3.0 0.00 0.00 0.00 71 1018.6
20260510161551 60 171 2.0 6.0 0.00 0.00 0.00 73 1018.8
20260510160049 59 214 1.0 4.0 0.00 0.00 0.00 75 1018.4
20260510154544 58 55 0.0 4.0 0.00 0.00 0.00 77 1018.5
20260510153057 57 235 2.0 5.0 0.00 0.00 0.00 78 1018.5
20260510151539 56 267 0.0 3.0 0.00 0.00 0.00 81 1018.2
20260510150042 55 266 0.0 3.0 0.00 0.00 0.00 82 1018.2
20260510144544 53 342 0.0 3.0 0.00 0.00 0.00 80 1017.9
20260510143046 52 252 0.0 2.0 0.00 0.00 0.00 79 1018.5
20260510141536 52 323 0.0 1.0 0.00 0.00 0.00 79 1018.1
20260510140035 51 323 0.0 2.0 0.00 0.00 0.00 79 1017.8
20260510134533 50 212 0.0 2.0 0.00 0.00 0.00 81 1017.8
20260510133030 51 212 0.0 2.0 0.00 0.00 0.00 80 1017.7
20260510131531 50 78 1.0 2.0 0.00 0.00 0.00 80 1017.4
20260510130029 50 118 0.0 2.0 0.00 0.00 0.00 80 1017.3
20260510124532 51 63 0.0 2.0 0.00 0.00 0.00 80 1017.3
20260510123027 50 5 0.0 2.0 0.00 0.00 0.00 80 1017.4
20260510121525 50 5 0.0 2.0 0.00 0.00 0.00 80 1017.1
20260510120024 50 5 0.0 2.0 0.00 0.00 0.00 80 1017.2
20260510114523 50 355 0.0 2.0 0.00 0.00 0.00 81 1017.2
20260510113020 51 49 0.0 2.0 0.00 0.00 0.00 80 1017.0
20260510111519 51 49 0.0 2.0 0.00 0.00 0.00 81 1017.1
20260510110021 51 49 1.0 3.0 0.00 0.00 0.00 80 1016.8
20260510104515 51 29 0.0 0.0 0.00 0.00 0.00 81 1016.8
20260510103015 51 29 1.0 3.0 0.00 0.00 0.00 80 1016.5
20260510101510 51 73 0.0 2.0 0.00 0.00 0.00 81 1016.4
20260510100015 52 111 0.0 2.0 0.00 0.00 0.00 82 1016.3
20260510094506 52 332 2.0 4.0 0.00 0.00 0.00 81 1015.7
20260510093003 53 59 0.0 2.0 0.00 0.00 0.00 82 1015.7
20260510091501 53 34 0.0 3.0 0.00 0.00 0.00 82 1015.9
20260510090103 54 42 0.0 2.0 0.00 0.00 0.00 82 1015.9
20260510084612 54 42 1.0 3.0 0.00 0.00 0.00 82 1015.8
20260510083056 54 42 1.0 2.0 0.00 0.00 0.00 82 1015.6
20260510081557 54 48 0.0 2.0 0.00 0.00 0.00 81 1015.6
20260510080054 54 349 1.0 2.0 0.00 0.00 0.00 82 1015.6
20260510074552 55 349 0.0 2.0 0.00 0.00 0.00 81 1015.5
20260510073059 55 349 0.0 2.0 0.00 0.00 0.00 81 1015.5
20260510071550 56 349 0.0 1.0 0.00 0.00 0.00 81 1015.5
20260510070047 56 349 0.0 2.0 0.00 0.00 0.00 81 1015.6
20260510064548 57 349 0.0 2.0 0.00 0.00 0.00 80 1015.5
20260510063048 57 349 0.0 2.0 0.00 0.00 0.00 79 1015.4
20260510061544 58 349 0.0 2.0 0.00 0.00 0.00 78 1015.3
20260510060044 58 349 0.0 2.0 0.00 0.00 0.00 78 1015.2
20260510054542 59 349 1.0 3.0 0.00 0.00 0.00 78 1015.2
20260510053041 59 31 0.0 2.0 0.00 0.00 0.00 77 1015.2
20260510051545 60 51 1.0 3.0 0.00 0.00 0.00 77 1015.1
20260510050041 60 56 0.0 1.0 0.00 0.00 0.00 76 1015.0
20260510044539 61 56 0.0 4.0 0.00 0.00 0.00 73 1015.1
20260510043042 61 47 1.0 4.0 0.00 0.00 0.00 73 1015.1
20260510041539 62 42 1.0 3.0 0.00 0.00 0.00 71 1015.0
20260510040040 63 40 1.0 2.0 0.00 0.00 0.00 69 1014.8
20260510034544 65 5 0.0 2.0 0.00 0.00 0.00 65 1014.5
20260510033039 66 345 1.0 2.0 0.00 0.00 0.00 62 1014.4
20260510031537 67 61 1.0 3.0 0.00 0.00 0.00 62 1014.4
20260510030037 69 38 1.0 2.0 0.00 0.00 0.00 55 1014.4
20260510024538 71 38 0.0 2.0 0.00 0.00 0.00 56 1014.3
20260510023036 72 38 0.0 2.0 0.00 0.00 0.00 49 1014.2
20260510021535 72 350 0.0 4.0 0.00 0.00 0.00 49 1014.3
20260510020037 73 360 1.0 5.0 0.00 0.00 0.00 47 1014.4
20260510014540 73 5 2.0 6.0 0.00 0.00 0.00 46 1014.4
20260510013031 74 33 3.0 7.0 0.00 0.00 0.00 46 1014.5
20260510011539 75 13 3.0 7.0 0.00 0.00 0.00 45 1014.5
20260510010029 76 84 3.0 11.0 0.00 0.00 0.00 47 1014.6
20260510004528 77 51 4.0 8.0 0.00 0.00 0.00 46 1014.6
20260510003028 77 35 2.0 5.0 0.00 0.00 0.00 45 1014.6
20260510001527 76 26 4.0 7.0 0.00 0.00 0.00 43 1014.7
20260510000051 78 51 2.0 7.0 0.00 0.00 0.00 46 1014.8
20260509234539 80 227 1.0 4.0 0.00 0.00 0.00 42 1014.9
20260509233026 80 284 1.0 3.0 0.00 0.00 0.00 42 1015.1
20260509231519 80 303 0.0 3.0 0.00 0.00 0.00 44 1015.3
20260509230016 78 243 4.0 7.0 0.00 0.00 0.00 45 1015.6
20260509224517 77 232 2.0 5.0 0.00 0.00 0.00 48 1015.6
20260509223011 78 205 2.0 6.0 0.00 0.00 0.00 44 1016.0
20260509221509 79 58 3.0 7.0 0.00 0.00 0.00 46 1016.3
20260509220006 78 175 4.0 7.0 0.00 0.00 0.00 45 1016.7
20260509214504 78 217 5.0 7.0 0.00 0.00 0.00 45 1016.8
20260509213100 77 240 4.0 8.0 0.00 0.00 0.00 50 1016.9
20260509211557 76 236 4.0 7.0 0.00 0.00 0.00 47 1017.2
20260509210105 75 153 4.0 9.0 0.00 0.00 0.00 48 1017.3
20260509204554 75 347 3.0 5.0 0.00 0.00 0.00 51 1017.4
20260509203047 73 202 4.0 8.0 0.00 0.00 0.00 55 1017.7